{"data":{"norad_id":63326,"epoch":"2026-09-20T13:31:47.856576Z","epoch_age_seconds":153362,"freshness":"FRESH","line1":"1 63326U 25057V   26263.56374834  .00011874  00000+0  44019-3 0  9999","line2":"2 63326  43.0014  10.0474 0001088 273.3940  86.6787 15.27589692 85587","mean_motion":15.27589692,"eccentricity":0.0001088,"inclination_deg":43.0014,"raan_deg":10.0474,"arg_perigee_deg":273.394,"mean_anomaly_deg":86.6787,"bstar":0.00044019,"rev_number":8558,"period_min":94.266150625478,"perigee_km":482.27358096867,"apogee_km":483.76656874816,"semimajor_km":6861.1570748584,"source":"CELESTRAK","updated_at":"2026-09-21T09:00:34.970956Z"}}